User: anonymous   Login
Location: Unspecified
(0.0000°N, 0.0000°E)
Time: 19:59:46
(UTC+00:00)
Language:

GONETS D1M 1 - Orbit

View from above orbital plane
View from above orbital plane
View from above satellite
View from above satellite

Ground track
Ground track

The orbit data is extracted from the following two-line orbital elements,

1 28908U 05048A   18172.07258618  .00000011  00000-0  62291-5 0  9997
2 28908  82.4682  13.4907 0006835 198.3736 276.9326 12.55486481572713
Epoch (UTC): 21 June 2018 01:44:31
Eccentricity: 0.0006835
inclination: 82.4682°
perigee height: 1436 km
apogee height: 1447 km
right ascension of ascending node: 13.4907°
argument of perigee: 198.3736°
revolutions per day: 12.55486481
mean anomaly at epoch: 276.9326°
orbit number at epoch: 57271

The dashed part of the orbit path shows where the satellite is in the earth's shadow,  

DLR